Flag for Germany Weather past 2 weeks in Dillenburg, Hesse, Germany

Now
59 °F

Passing clouds.


Feels Like: 59 °F
Forecast: 49 / 67 °F
Wind: 5 mph from Southwest

Location: Hessen

Current Time: Oct 1, 2014 at 11:06:08 AM

Latest Report: Oct 1, 2014 at 10:20 AM


Visibility: N/A

Pressure: 30.33 "Hg

Humidity: 88%

Dew point: 55 °F

Location of DillenburgLocation

Historic Weather in Dillenburg — Graph

°F

Dillenburg temperature yesterday

Maximum temperature yesterday: 61 °F (at 11:50 AM)
Minimum temperature yesterday: 55 °F (at 7:50 AM)
Average temperature yesterday: 59 °F

Past Weeks' High & Low Weather Summary

 TemperatureHumidityPressure
High68 °F (Sep 16, 4:20 PM)100% (Sep 16, 9:20 AM)30.39 "Hg (Sep 16, 9:20 AM)
Low41 °F (Sep 23, 7:50 AM)62% (Sep 23, 2:50 PM)29.86 "Hg (Sep 24, 5:20 PM)
Average57 °F87%30.11 "Hg
* Reported Sep 16 9:20 AM — Oct 1 9:50 AM, Dillenburg, Weather by CustomWeather, © 2014

Note: Actual official high and low records may vary slightly from our data, if they occured in-between our weather recording intervals... More about our weather records

Advertising

Dillenburg weather history for previous 24 hours

 ConditionsComfort  
Time TempWeatherWind HumidityBarometerVisibility
9:50 AM
Oct 1
59 °FFog.6 mph88%30.33 "Hg5 mi
9:20 AM57 °FFog.3 mph94%30.33 "Hg3 mi
8:50 AM57 °FFog.3 mph88%30.33 "Hg3 mi
8:20 AM55 °FFog.3 mph94%30.33 "Hg2 mi
7:50 AM55 °FFog.3 mph94%30.33 "Hg2 mi
7:20 AM55 °FFog.2 mph94%30.33 "Hg3 mi
9:50 PM
Sep 30
57 °FClear.2 mph100%30.33 "Hg6 mi
9:20 PM57 °FClear.5 mph100%30.33 "Hg5 mi
8:50 PM59 °FClear.5 mph94%30.33 "Hg10 mi
8:20 PM59 °FClear.5 mph94%30.33 "Hg10 mi
7:50 PM59 °FSunny.6 mph88%30.30 "Hg10 mi
7:20 PM59 °FPartly sunny.5 mph88%30.30 "HgN/A
6:50 PM59 °FScattered clouds.6 mph94%30.30 "HgN/A
6:20 PM61 °FScattered clouds.6 mph88%30.30 "HgN/A
5:50 PM59 °FPassing clouds.3 mph94%30.30 "HgN/A
5:20 PM61 °FScattered clouds.6 mph88%30.30 "HgN/A
4:50 PM59 °FScattered clouds.8 mph94%30.30 "HgN/A
4:20 PM59 °FScattered clouds.7 mph94%30.30 "HgN/A
3:50 PM59 °FBroken clouds.8 mph94%30.30 "Hg5 mi
3:20 PM59 °FBroken clouds.9 mph94%30.30 "Hg5 mi
2:50 PM61 °FBroken clouds.8 mph88%30.30 "HgN/A
2:20 PM61 °FBroken clouds.7 mph88%30.30 "HgN/A
1:50 PM61 °FBroken clouds.6 mph88%30.30 "HgN/A
1:20 PM61 °FPartly sunny.6 mph88%30.30 "HgN/A
12:50 PM61 °FBroken clouds.6 mph88%30.30 "HgN/A
12:20 PM61 °FBroken clouds.5 mph83%30.30 "HgN/A
11:50 AM61 °FPartly sunny.5 mph88%30.30 "HgN/A
11:20 AM59 °FScattered clouds.6 mph94%30.30 "HgN/A
Weather by CustomWeather, © 2014

See weather overviewHow to use our weather pages